Macon, GA

2:36 AM EDT on May 30, 2017 (GMT -0400)
Middle Georgia Regional

Weather History for KMCN - March, 2012

Change the Weather History Date:

Thursday, March 22, 2012

  Actual Average Record
Temperature  
Mean Temperature 72 °F 58 °F  
Max Temperature 81 °F 71 °F 91 °F (1907)
Min Temperature 62 °F 45 °F 24 °F (1965)
Degree Days  
Heating Degree Days 0 7  
Month to date heating degree days 95 213  
Since 1 July heating degree days 1772 2138  
Cooling Degree Days 7 1  
Month to date cooling degree days 58 11  
Year to date cooling degree days 66 14  
Growing Degree Days 20 (Base 50)    
Moisture  
Dew Point 64 °F    
Average Humidity 81    
Maximum Humidity 100    
Minimum Humidity 62    
Precipitation  
Precipitation 0.06 in 0.14 in 2.62 in (1944)
Month to date precipitation 1.40 3.29  
Year to date precipitation 7.12 11.89  
Snow  
Snow 0.00 in 0.00 in 0.00 in (2002)
Month to date snowfall 0.0 0.2  
Since 1 July snowfall T 0.7  
Snow Depth -    
Sea Level Pressure  
Sea Level Pressure 30.14 in    
Wind  
Wind Speed 5 mph (SE)    
Max Wind Speed 10 mph    
Max Gust Speed 15 mph    
Visibility 7 miles    
Events Fog , Rain , Thunderstorm    
T = Trace of Precipitation, MM = Missing Value Source: NWS Daily Summary

Daily Weather History Graph

Daily Weather History Graph

Search for Another Location

Airport or City:

Trip Planner

Search our weather history database for the weather conditions in past years. The results will help you decide how hot, cold, wet, or windy it might be!

Date:

Astronomy

Mar. 22, 2012 Rise Set
Actual Time 7:35 AM EDT 7:47 PM EDT
Civil Twilight 7:10 AM EDT 8:12 PM EDT
Nautical Twilight 6:41 AM EDT 8:41 PM EDT
Astronomical Twilight 6:12 AM EDT 9:10 PM EDT
Moon 7:16 AM EDT (3/22) 8:07 PM EDT (3/22)
Length of Visible Light 13h 02m
Length of Day
12h 12m
New Moon, 0% of the Moon is Illuminated
Mar 22
New Moon
Mar 30
First Quarter
Apr 6
Full
Apr 13
Last Quarter
Apr 21
New

Hourly Weather History & Observations

Time (EDT) Temp. Dew Point Humidity Pressure Visibility Wind Dir Wind Speed Gust Speed Precip Events Conditions
12:53 AM 66.9 °F 63.0 °F 87% 30.18 in 10.0 mi SE 6.9 mph - N/A   Overcast
1:53 AM 64.9 °F 63.0 °F 93% 30.18 in 10.0 mi SE 5.8 mph - N/A   Partly Cloudy
2:53 AM 63.0 °F 61.0 °F 93% 30.18 in 10.0 mi ESE 4.6 mph - N/A   Scattered Clouds
3:00 AM 64.4 °F 62.6 °F 94% 30.19 in 10.0 mi ESE 3.5 mph - N/A   Mostly Cloudy
3:53 AM 64.9 °F 63.0 °F 93% 30.15 in 10.0 mi East 4.6 mph - N/A   Overcast
4:53 AM 66.0 °F 63.0 °F 90% 30.14 in 10.0 mi SE 6.9 mph - N/A   Overcast
5:09 AM 66.2 °F 62.6 °F 88% 30.15 in 10.0 mi SE 6.9 mph - N/A   Overcast
5:39 AM 66.2 °F 62.6 °F 88% 30.15 in 10.0 mi ESE 9.2 mph - N/A   Overcast
5:53 AM 66.0 °F 63.0 °F 90% 30.14 in 10.0 mi ESE 6.9 mph - N/A   Overcast
6:53 AM 64.9 °F 63.0 °F 93% 30.15 in 10.0 mi ESE 5.8 mph - N/A   Overcast
7:53 AM 64.9 °F 64.0 °F 97% 30.16 in 10.0 mi ESE 5.8 mph - N/A   Overcast
8:53 AM 66.0 °F 64.0 °F 93% 30.18 in 10.0 mi SE 6.9 mph - N/A   Overcast
9:53 AM 68.0 °F 64.9 °F 90% 30.19 in 10.0 mi SE 5.8 mph - N/A   Overcast
10:53 AM 69.1 °F 64.9 °F 87% 30.20 in 10.0 mi SSE 8.1 mph - N/A   Overcast
11:39 AM 69.8 °F 64.4 °F 83% 30.22 in 10.0 mi SSE 4.6 mph - N/A   Overcast
11:53 AM 70.0 °F 64.9 °F 84% 30.21 in 10.0 mi SSE 5.8 mph - N/A   Overcast
12:53 PM 72.0 °F 64.9 °F 78% 30.19 in 10.0 mi SSE 5.8 mph - N/A   Overcast
1:53 PM 77.0 °F 66.0 °F 69% 30.16 in 10.0 mi South 6.9 mph - N/A   Mostly Cloudy
2:53 PM 79.0 °F 64.9 °F 62% 30.14 in 10.0 mi South 5.8 mph - N/A   Mostly Cloudy
3:53 PM 78.1 °F 64.0 °F 62% 30.12 in 10.0 mi SSE 5.8 mph - N/A   Mostly Cloudy
4:53 PM 77.0 °F 66.0 °F 69% 30.10 in 10.0 mi ENE 9.2 mph - N/A   Mostly Cloudy
5:53 PM 72.0 °F 64.9 °F 78% 30.10 in 4.0 mi Calm Calm - 0.03 in Rain Light Rain
5:59 PM 71.6 °F 66.2 °F 83% 30.11 in 2.5 mi Calm Calm - 0.01 in Rain , Thunderstorm Light Thunderstorms and Rain
6:07 PM 69.8 °F 66.2 °F 88% 30.11 in 4.0 mi Calm Calm - 0.02 in Rain , Thunderstorm Light Thunderstorms and Rain
6:53 PM 70.0 °F 66.9 °F 90% 30.10 in 10.0 mi Calm Calm - 0.03 in   Overcast
7:53 PM 69.1 °F 66.0 °F 90% 30.12 in 10.0 mi ESE 5.8 mph - N/A   Overcast
8:53 PM 68.0 °F 66.0 °F 93% 30.12 in 10.0 mi Calm Calm - N/A   Scattered Clouds
9:28 PM 66.2 °F 64.4 °F 94% 30.12 in 1.5 mi Calm Calm - N/A   Clear
9:41 PM 66.2 °F 64.4 °F 94% 30.12 in 4.0 mi Calm Calm - N/A   Clear
9:48 PM 66.2 °F 64.4 °F 94% 30.12 in 1.5 mi Calm Calm - N/A   Clear
9:53 PM 64.9 °F 64.9 °F 100% 30.11 in 0.5 mi Calm Calm - N/A Fog Fog
10:05 PM 64.4 °F 64.4 °F 100% 30.12 in 0.5 mi Calm Calm - N/A Fog Fog
10:14 PM 66.2 °F 64.4 °F 94% 30.12 in 0.5 mi Calm Calm - N/A Fog Fog
10:21 PM 64.4 °F 64.4 °F 100% 30.12 in 0.5 mi Calm Calm - N/A Fog Fog
10:25 PM 64.4 °F 64.4 °F 100% 30.13 in 1.2 mi Calm Calm - N/A   Partly Cloudy
10:38 PM 64.4 °F 64.4 °F 100% 30.13 in 3.0 mi Calm Calm - N/A   Partly Cloudy
10:53 PM 64.9 °F 64.9 °F 100% 30.12 in 2.5 mi Calm Calm - N/A   Clear
11:00 PM 64.4 °F 64.4 °F 100% 30.13 in 0.8 mi Calm Calm - N/A   Clear
11:39 PM 62.6 °F 62.6 °F 100% 30.13 in 2.0 mi ESE 4.6 mph - N/A   Clear
11:48 PM 62.6 °F 62.6 °F 100% 30.13 in 4.0 mi Calm Calm - N/A   Clear
11:53 PM 64.0 °F 63.0 °F 96% 30.12 in 4.0 mi Calm Calm - N/A   Clear